Weather History for KHAI - December, 2012

Change the Weather History Date:

Thursday, December 20, 2012

  Actual Average Record
Temperature  
Mean Temperature 40 °F -  
Max Temperature 48 °F 35 °F 55 °F (1949)
Min Temperature 32 °F 19 °F -9 °F (1963)
Degree Days  
Heating Degree Days 25    
Moisture  
Dew Point 36 °F    
Average Humidity 87    
Maximum Humidity 94    
Minimum Humidity 74    
Precipitation  
Precipitation 0.00 in - - ()
Sea Level Pressure  
Sea Level Pressure 29.40 in    
Wind  
Wind Speed 13 mph (SE)    
Max Wind Speed 22 mph    
Max Gust Speed 33 mph    
Visibility 6 miles    
Events Rain , Snow    
Averages and records for this station are not official NWS values.
T = Trace of Precipitation, MM = Missing Value Source: NWS Daily Summary

Daily Weather History Graph

Daily Weather History Graph

Search for Another Location

Airport or City:

Trip Planner

Search our weather history database for the weather conditions in past years. The results will help you decide how hot, cold, wet, or windy it might be!

Date:

Astronomy

Dec. 20, 2012 Rise Set
Actual Time 8:06 AM EST 5:13 PM EST
Civil Twilight 7:34 AM EST 5:45 PM EST
Nautical Twilight 6:59 AM EST 6:20 PM EST
Astronomical Twilight 6:25 AM EST 6:54 PM EST
Moon 12:36 PM EST (12/20) 12:47 AM EST (12/20)
Length of Visible Light 10h 10m
Length of Day
9h 07m
First Quarter, 55% of the Moon is Illuminated
Dec 20
First Quarter
Dec 28
Full
Jan 4
Last Quarter
Jan 11
New
Jan 18
First Quarter

Hourly Weather History & Observations

Time (EST) Temp. Windchill Dew Point Humidity Pressure Visibility Wind Dir Wind Speed Gust Speed Precip Events Conditions
12:15 AM 37.6 °F 31.6 °F 33.4 °F 85% 29.97 in 7.0 mi East 8.1 mph - N/A   Overcast
12:34 AM 37.4 °F 30.3 °F 33.3 °F 85% 29.94 in 7.0 mi ESE 10.4 mph - N/A   Overcast
12:55 AM 37.4 °F 30.3 °F 33.1 °F 84% 29.92 in 7.0 mi ESE 10.4 mph 18.4 mph N/A   Overcast
1:15 AM 37.4 °F 29.8 °F 32.9 °F 84% 29.92 in 7.0 mi ESE 11.5 mph 17.3 mph N/A   Overcast
1:34 AM 37.6 °F 29.1 °F 32.9 °F 83% 29.91 in 7.0 mi SE 13.8 mph 18.4 mph N/A   Overcast
2:14 AM 37.9 °F 29.2 °F 33.1 °F 83% 29.87 in 7.0 mi ESE 15.0 mph 20.7 mph N/A   Overcast
2:35 AM 37.9 °F 30.5 °F 33.1 °F 83% 29.83 in 7.0 mi East 11.5 mph 21.9 mph N/A   Overcast
2:55 AM 38.3 °F 30.5 °F 33.3 °F 82% 29.79 in 7.0 mi East 12.7 mph 20.7 mph N/A   Light Drizzle
3:15 AM 39.0 °F 31.0 °F 33.4 °F 80% 29.79 in 7.0 mi East 13.8 mph 20.7 mph N/A Rain Light Rain
3:35 AM 38.5 °F 29.6 °F 33.8 °F 83% 29.79 in 5.0 mi East 16.1 mph 20.7 mph N/A Rain Light Rain
3:55 AM 38.3 °F 31.4 °F 34.2 °F 85% 29.81 in 3.0 mi ESE 10.4 mph - N/A Rain Rain
4:15 AM 38.1 °F 31.7 °F 34.7 °F 87% 29.80 in 3.0 mi ESE 9.2 mph - N/A Rain Rain
4:35 AM 37.9 °F 31.5 °F 34.9 °F 89% 29.77 in 4.0 mi ESE 9.2 mph - N/A Rain Light Rain
4:54 AM 38.3 °F 31.4 °F 35.2 °F 89% 29.75 in 3.0 mi East 10.4 mph - N/A Rain Rain
5:15 AM 38.3 °F 31.4 °F 35.2 °F 89% 29.69 in 4.0 mi East 10.4 mph 18.4 mph N/A Rain Light Rain
5:35 AM 38.3 °F 28.7 °F 35.2 °F 89% 29.67 in 4.0 mi ESE 18.4 mph 24.2 mph N/A Rain Rain
5:54 AM 38.3 °F 29.0 °F 35.2 °F 89% 29.67 in 4.0 mi ESE 17.3 mph 24.2 mph N/A Rain Light Rain
6:15 AM 38.3 °F 30.1 °F 35.2 °F 89% 29.66 in 4.0 mi ESE 13.8 mph 24.2 mph N/A Rain Light Rain
6:35 AM 38.3 °F 28.7 °F 35.6 °F 90% 29.63 in 3.0 mi ESE 18.4 mph 27.6 mph N/A Rain Rain
6:54 AM 38.3 °F 27.8 °F 35.6 °F 90% 29.61 in 3.0 mi ESE 21.9 mph 28.8 mph N/A Rain Light Rain
7:15 AM 38.7 °F 29.5 °F 35.8 °F 89% 29.58 in 3.0 mi ESE 17.3 mph 26.5 mph N/A Rain Rain
7:34 AM 38.8 °F 28.5 °F 35.8 °F 89% 29.56 in 4.0 mi ESE 21.9 mph 27.6 mph N/A Rain Light Rain
7:55 AM 39.2 °F 29.8 °F 36.0 °F 88% 29.54 in 4.0 mi ESE 18.4 mph 26.5 mph N/A Rain Light Rain
8:15 AM 39.2 °F 29.6 °F 36.0 °F 88% 29.50 in 3.0 mi ESE 19.6 mph 33.4 mph N/A Rain Rain
8:35 AM 39.0 °F 30.6 °F 36.0 °F 89% 29.50 in 3.0 mi ESE 15.0 mph 28.8 mph N/A Rain Rain
8:55 AM 38.7 °F 30.5 °F 35.8 °F 89% 29.50 in 2.5 mi ESE 13.8 mph 19.6 mph N/A Rain Rain
9:15 AM 39.2 °F 31.2 °F 36.5 °F 90% 29.50 in 3.0 mi ESE 13.8 mph 21.9 mph N/A Rain Rain
9:35 AM 39.2 °F 31.6 °F 36.1 °F 89% 29.50 in 2.5 mi SE 12.7 mph 18.4 mph N/A Rain Light Rain
9:55 AM 39.2 °F 32.0 °F 36.5 °F 90% 29.47 in 2.5 mi SE 11.5 mph 24.2 mph N/A Rain Light Rain
10:15 AM 39.6 °F 31.3 °F 36.7 °F 89% 29.46 in 4.0 mi ESE 15.0 mph 24.2 mph N/A Rain Light Rain
10:35 AM 40.1 °F 31.0 °F 37.2 °F 89% 29.40 in 4.0 mi ESE 18.4 mph 29.9 mph N/A Rain Light Rain
10:55 AM 40.1 °F 30.5 °F 37.0 °F 89% 29.39 in 5.0 mi ESE 20.7 mph 26.5 mph N/A   Overcast
11:14 AM 40.6 °F 30.9 °F 37.6 °F 89% 29.38 in 5.0 mi SE 21.9 mph 31.1 mph N/A   Light Drizzle
11:35 AM 41.0 °F 31.4 °F 37.8 °F 88% 29.36 in 7.0 mi SE 21.9 mph 28.8 mph N/A   Overcast
11:55 AM 41.9 °F 32.8 °F 38.7 °F 88% 29.29 in 7.0 mi ESE 20.7 mph 26.5 mph N/A   Overcast
12:14 PM 41.9 °F 34.3 °F 38.7 °F 88% 29.25 in 7.0 mi ESE 15.0 mph 27.6 mph N/A   Overcast
12:35 PM 42.6 °F 36.8 °F 39.4 °F 88% 29.25 in 7.0 mi SSE 10.4 mph 18.4 mph N/A   Overcast
12:55 PM 43.7 °F 38.1 °F 40.6 °F 89% 29.25 in 10.0 mi SE 10.4 mph 16.1 mph N/A   Overcast
1:14 PM 44.6 °F 38.1 °F 41.4 °F 88% 29.23 in 10.0 mi SE 13.8 mph 26.5 mph N/A   Overcast
1:35 PM 45.0 °F 38.2 °F 41.9 °F 89% 29.22 in 10.0 mi SSE 15.0 mph 19.6 mph N/A   Overcast
1:55 PM 45.0 °F 38.2 °F 42.3 °F 90% 29.19 in 7.0 mi SE 15.0 mph 24.2 mph N/A   Drizzle
2:15 PM 45.5 °F 38.9 °F 42.8 °F 90% 29.17 in 5.0 mi SE 15.0 mph 21.9 mph N/A   Overcast
2:35 PM 46.2 °F 40.1 °F 43.7 °F 91% 29.15 in 4.0 mi SE 13.8 mph 25.3 mph N/A Rain Light Rain
2:55 PM 46.6 °F - 44.2 °F 92% 29.14 in 5.0 mi SE 15.0 mph 21.9 mph N/A Rain Light Rain
3:15 PM 47.1 °F - 44.6 °F 91% 29.13 in 5.0 mi SE 11.5 mph 18.4 mph N/A Rain Light Rain
3:35 PM 47.7 °F - 45.1 °F 91% 29.11 in 3.0 mi SE 12.7 mph 20.7 mph N/A Rain Light Rain
3:54 PM 48.2 °F - 45.5 °F 90% 29.10 in 10.0 mi SSE 12.7 mph 17.3 mph N/A Rain Rain
4:15 PM 48.6 °F - 45.9 °F 90% 29.10 in 5.0 mi South 11.5 mph - N/A Rain Rain
4:35 PM 45.5 °F 39.9 °F 41.4 °F 85% 29.12 in 5.0 mi SW 11.5 mph 18.4 mph N/A Rain Rain
4:54 PM 44.8 °F 39.4 °F 41.2 °F 87% 29.11 in 7.0 mi SSW 10.4 mph - N/A Rain Rain
5:15 PM 44.1 °F 38.6 °F 40.6 °F 88% 29.11 in 7.0 mi SSW 10.4 mph - N/A   Overcast
5:34 PM 44.1 °F 39.0 °F 40.6 °F 88% 29.11 in 7.0 mi SSW 9.2 mph 16.1 mph N/A Rain Light Rain
5:55 PM 43.9 °F 38.8 °F 40.5 °F 88% 29.13 in 5.0 mi SW 9.2 mph - N/A Rain Rain
6:14 PM 43.3 °F 36.5 °F 39.7 °F 87% 29.13 in 7.0 mi SW 13.8 mph 20.7 mph N/A   Light Drizzle
6:35 PM 42.4 °F 36.5 °F 37.4 °F 82% 29.14 in 10.0 mi SW 10.4 mph - N/A   Light Drizzle
6:54 PM 41.7 °F 34.1 °F 35.6 °F 79% 29.15 in 10.0 mi SSW 15.0 mph 19.6 mph N/A   Overcast
7:15 PM 40.6 °F 32.7 °F 33.4 °F 75% 29.15 in 10.0 mi SSW 15.0 mph - N/A   Overcast
7:35 PM 39.7 °F 31.2 °F 32.9 °F 77% 29.15 in 10.0 mi SSW 16.1 mph - N/A   Overcast
7:54 PM 38.8 °F 30.8 °F 31.1 °F 74% 29.15 in 10.0 mi SSW 13.8 mph 25.3 mph N/A   Overcast
8:15 PM 38.3 °F 29.3 °F 31.1 °F 75% 29.16 in 10.0 mi SW 16.1 mph 19.6 mph N/A   Overcast
8:35 PM 37.8 °F 29.8 °F 30.9 °F 76% 29.15 in 10.0 mi SW 12.7 mph - N/A   Overcast
8:54 PM 37.2 °F 30.0 °F 31.5 °F 80% 29.15 in 10.0 mi SSW 10.4 mph - N/A   Overcast
9:15 PM 36.1 °F 27.3 °F 30.6 °F 80% 29.16 in 10.0 mi SSW 13.8 mph 19.6 mph N/A   Overcast
9:35 PM 35.2 °F 28.1 °F 30.7 °F 84% 29.16 in 10.0 mi South 9.2 mph 19.6 mph N/A   Overcast
9:55 PM 34.7 °F 25.9 °F 30.4 °F 84% 29.15 in 10.0 mi SSW 12.7 mph - N/A   Overcast
10:15 PM 34.0 °F 25.5 °F 30.7 °F 88% 29.15 in 5.0 mi SSW 11.5 mph 17.3 mph N/A   Light Drizzle
10:35 PM 33.1 °F 26.9 °F 31.1 °F 92% 29.15 in 4.0 mi South 6.9 mph - N/A   Overcast
10:55 PM 33.1 °F 24.9 °F 31.6 °F 94% 29.14 in 10.0 mi South 10.4 mph - N/A   Overcast
11:15 PM 32.9 °F 25.3 °F 31.5 °F 94% 29.14 in 5.0 mi South 9.2 mph - N/A Snow Light Snow
11:35 PM 32.9 °F 25.3 °F 31.3 °F 94% 29.13 in 4.0 mi SSE 9.2 mph - N/A Snow Light Snow
11:55 PM 32.5 °F 25.5 °F 31.1 °F 94% 29.13 in 3.0 mi SSE 8.1 mph - N/A Snow Light Snow